Tracking 23583 objects as of 1-Aug-2021
HD Live streaming from Space Station
objects crossing your sky now

FENGYUN 1C DEB

Track FENGYUN 1C DEB now!
10-day predictions


NORAD ID: 32350
Int'l Code: 1999-025CYT
Perigee: 546.2 km
Apogee: 1,004.3 km
Inclination: 98.4 °
Period: 100.2 minutes
Semi major axis: 7146 km
RCS: 0.0139 m2 (small)
Launch date: May 10, 1999
Source: People's Republic of China (PRC)
Launch site: Taiyaun Space Center, China (TSC)

Note: This is SATELLITE DEBRIS
aabbcc
Your satellite tracking list
Your tracking list is empty




NASA's NSSDC Master Catalog

Two Line Element Set (TLE):
1 32350U 99025CYT 21212.42267480  .00000474  00000-0  98340-4 0  9992
2 32350  98.4473 268.5057 0320503  87.7860 275.9985 14.37085092745248
Source of the keplerian elements: AFSPC